Regional Weather Roundup
Issued by NWS Bismarck, ND

Home | Current Version | Previous Version | Text Only | Print | Product List | Glossary On
Versions: 1 2 3 4 5 6 7 8 9 10 11 12 13 14 15 16 17 18 19 20 21 22 23 24 25 26 27 28 29 30 31 32 33 34 35 36 37 38 39 40 41 42 43 44 45 46 47 48 49 50
000
ASUS43 KBIS 011510
RWRBIS

NWR BROADCAST TEXT
NATIONAL WEATHER SERVICE BISMARCK ND
1000 AM CDT SAT OCT 01 2016

NOTE: "FAIR" INDICATES FEW OR NO CLOUDS BELOW 12,000 FEET WITH NO
SIGNIFICANT WEATHER AND/OR OBSTRUCTIONS TO VISIBILITY.


CITY           SKY/WX    TMP DP  RH WIND       PRES   REMARKS
WILLISTON      SUNNY     56  48  74 CALM      29.98S
MINOT          SUNNY     56  49  77 SE10      30.01S
MINOT AFB      SUNNY     56  49  79 SE12      30.00S
BISMARCK       SUNNY     59  47  64 SE13      30.03S
DICKINSON      SUNNY     54  47  77 S3        29.97S
GARRISON         N/A     59  48  67 VRB6      30.01R
HETTINGER ARPT SUNNY     56  47  71 SE3       30.00F
JAMESTOWN      MOSUNNY   55  50  83 SE10      30.10S
BEACH          FAIR      55  54  94 SE3       30.01S
CARRINGTON     FAIR      59  48  67 SE17      30.11R
HAZEN          FAIR      59  46  63 CALM      30.02S
MANDAN         FAIR      57  46  67 SE7       30.03S
RUGBY          FAIR      57  48  72 SE15      30.05S
STANLEY        FAIR      52  52 100 E5        30.02S
WATFORD CITY   FAIR      54  48  82 E3        29.99S
$$

CITY           SKY/WX    TMP DP  RH WIND       PRES   REMARKS
GRAND FORKS    CLOUDY    55  49  80 S8        30.15S
GRAND FORKS AF CLOUDY    56  51  82 S10       30.14F
DEVILS LAKE    CLOUDY    58  49  72 SE15      30.10S
FARGO          CLOUDY    58  51  78 S9        30.15S
CANDO          FAIR      55  54  94 SE10      30.11S
CAVALIER       FAIR      57  50  77 SE8       30.14S
GRAFTON        FAIR      54  52  94 SE8       30.17R
GWINNER        FAIR      55  52  88 E6        30.13S
LANGDON        PTSUNNY   59  52  77 SE12      30.12S
ROLLA            N/A     55  48  76 S9        30.09F
WALHALLA       LGT RAIN  55  52  88 SE10      30.13F
$$

CITY           SKY/WX    TMP DP  RH WIND       PRES   REMARKS
ABERDEEN       MOSUNNY   61  50  67 S12       30.11R
MOBRIDGE       MOSUNNY   62  46  55 SE18      30.00R
BUFFALO          N/A     60  49  66 CALM      29.93F
RAPID CITY     SUNNY     67  52  58 W3        30.01S
GLASGOW        SUNNY     55  50  83 VRB7      29.94F
SIDNEY         SUNNY     53  48  83 CALM      29.97F
WOLF POINT     SUNNY     54  50  86 E8        29.96F
GLENDIVE       SUNNY     55  51  86 CALM      29.97S
MILES CITY     SUNNY     59  51  75 SE3       29.96S
BAKER          SUNNY     60  50  69 CALM      29.99S
$$

CITY           SKY/WX    TMP DP  RH WIND       PRES   REMARKS
BILLINGS       MOSUNNY   56  46  69 SW10      29.98S
GREAT FALLS    CLOUDY    63  43  48 S8        29.88S
REGINA         MOSUNNY   54  48  82 SE12      30.00S
ESTEVAN        MOSUNNY   52  48  87 E7        30.00S
$$




USA.gov is the U.S. government's official web portal to all federal, state and local government web resources and services.